TimeEST,TemperatureF,Dew PointF,Humidity,Sea Level PressureIn,VisibilityMPH,Wind Direction,Wind SpeedMPH,Gust SpeedMPH,PrecipitationIn,Events,Conditions,WindDirDegrees,DateUTC
12:53 AM,30.9,16.0,54,30.06,10.0,WNW,5.8,-,N/A,,Clear,300,2012-11-25 05:53:00
1:53 AM,28.0,15.1,58,30.06,10.0,South,5.8,-,N/A,,Clear,170,2012-11-25 06:53:00
2:53 AM,30.0,16.0,56,30.07,10.0,Variable,3.5,-,N/A,,Clear,0,2012-11-25 07:53:00
3:53 AM,28.0,17.1,63,30.06,10.0,Calm,Calm,-,N/A,,Clear,0,2012-11-25 08:53:00
4:53 AM,28.9,17.1,61,30.06,10.0,SW,3.5,-,N/A,,Clear,230,2012-11-25 09:53:00
5:53 AM,30.0,16.0,56,30.07,10.0,SSW,3.5,-,N/A,,Clear,200,2012-11-25 10:53:00
6:53 AM,30.0,17.1,59,30.07,10.0,SSW,5.8,-,N/A,,Clear,210,2012-11-25 11:53:00
7:53 AM,32.0,17.1,54,30.09,10.0,South,4.6,-,N/A,,Clear,190,2012-11-25 12:53:00
8:53 AM,33.1,17.1,52,30.07,10.0,SSW,4.6,-,N/A,,Mostly Cloudy,200,2012-11-25 13:53:00
9:53 AM,35.1,18.0,50,30.09,10.0,Variable,3.5,-,N/A,,Clear,0,2012-11-25 14:53:00
10:53 AM,37.0,17.1,44,30.07,10.0,SSW,8.1,-,N/A,,Clear,200,2012-11-25 15:53:00
11:53 AM,39.9,17.1,40,30.02,10.0,South,10.4,-,N/A,,Clear,180,2012-11-25 16:53:00
12:53 PM,41.0,17.1,38,29.99,10.0,South,8.1,-,N/A,,Clear,190,2012-11-25 17:53:00
1:53 PM,42.1,17.1,37,29.97,10.0,South,8.1,-,N/A,,Clear,170,2012-11-25 18:53:00
2:53 PM,45.0,16.0,31,29.94,10.0,SSE,10.4,-,N/A,,Clear,150,2012-11-25 19:53:00
3:53 PM,45.0,15.1,30,29.94,10.0,South,13.8,-,N/A,,Clear,190,2012-11-25 20:53:00
4:53 PM,43.0,15.1,32,29.94,10.0,SSW,4.6,-,N/A,,Clear,210,2012-11-25 21:53:00
5:53 PM,44.1,15.1,31,29.94,10.0,SSW,9.2,-,N/A,,Clear,210,2012-11-25 22:53:00
6:53 PM,43.0,16.0,34,29.95,10.0,SSW,10.4,-,N/A,,Clear,210,2012-11-25 23:53:00
7:53 PM,42.1,17.1,37,29.96,10.0,SSW,10.4,-,N/A,,Clear,210,2012-11-26 00:53:00
8:53 PM,43.0,17.1,35,29.96,10.0,SSW,8.1,-,N/A,,Clear,210,2012-11-26 01:53:00
9:53 PM,41.0,18.0,40,29.97,10.0,SSW,6.9,-,N/A,,Clear,210,2012-11-26 02:53:00
10:53 PM,39.0,18.0,43,29.98,10.0,Calm,Calm,-,N/A,,Clear,0,2012-11-26 03:53:00
11:53 PM,37.0,19.0,48,29.99,10.0,Calm,Calm,-,N/A,,Clear,0,2012-11-26 04:53:00